Location: Diebersbach
(48.5163°N, 8.0558°E)
Time: 13:02:31
(UTC+00:00)

Cosmos 1656 Rocket - Pass Details

Date: 20 June 2021
Orbit: 794 x 847 km, 71.1° (Epoch: 30 July)

Event Time Altitude Azimuth Distance (km) Brightness Sun altitude
Rises 00:17:35 0° 332° (NNW) 3,420 7.7 -17.2°
Reaches altitude 10° 00:20:03 10° 333° (NNW) 2,482 6.9 -17.2°
Maximum altitude 00:25:47 84° 63° (ENE) 857 3.7 -16.9°
Enters shadow 00:30:22 16° 151° (SSE) 2,053 5.3 -16.8°
